Location: Chandrammap?lem
(16.9200°N, 81.0051°E)
Time: 10:29:08
(UTC+00:00)

DELTA 2 R/B (1) - Pass Details

Date: 29 May 2024
Orbit: 788 x 802 km, 39.6° (Epoch: 14 June)

Event Time Altitude Azimuth Distance (km) Brightness Sun altitude
Exits shadow 22:47:56 20° 278° (W) 1,764 4.9 -16.7°
Maximum altitude 22:51:11 37° 222° (SW) 1,194 4.0 -16.0°
Drops below altitude 10° 22:56:15 10° 155° (SSE) 2,335 6.0 -14.9°
Sets 22:58:53 0° 147° (SSE) 3,262 6.8 -14.4°
